(316737) = 1998 UW9 = 2009 QN55

Discovered at Kitt Peak on 1998-10-16 by Spacewatch.

Orbit

Orbit type: Main Belt

Note: WebGL enabled browser required.

epoch2023-02-25.0
epoch JD2460000.5
perihelion date2021-07-19.54980
perihelion JD2459415.04980
argument of perihelion (°)218.37362
ascending node (°)189.21841
inclination (°)7.97022
eccentricity0.0736687
perihelion distance (AU)2.9086644
Tisserand w.r.t. Jupiter3.2
ΔV w.r.t. Earth (km/sec)10.9
semimajor axis (AU)3.1399829
mean anomaly (°)103.70576
mean daily motion (°/day)0.17713850
aphelion distance (AU)3.371
period (years)5.56
P-vector [x]0.67536580
P-vector [y]0.70624225
P-vector [z]0.21237448
Q-vector [x]-0.73714830
Q-vector [y]0.65513673
Q-vector [z]0.16555437
absolute magnitude15.92
phase slope0.15
uncertainty0
referenceMPEC 2023-F215
observations used384
oppositions13
arc length (days)8929
first opposition used1998
last opposition used2023
residual rms (arc-secs)0.71
perturbers coarse indicatorM-v
perturbers precise indicator003Ek
first observation date used1998-10-16.0
last observation date used2023-03-28.0
computer nameMPCLINUX
JD of orbit computation2456909.093042
perihelion JD uncertainty (days)3.1074E-04
argument of perihelion uncertainty (°)5.7635E-05
ascending node uncertainty (°)2.9782E-05
inclination uncertainty (°)6.4786E-06
eccentricity uncertainty 6.0840E-08
perihelion distance uncertainty (AU)1.9801E-07
Minimum Orbit Intersection Distances (in AU)
for orbit epoch: 2460000.5, reference: E2023-F20
Mercury2.58891
Venus2.187
Earth1.92087
Mars1.42797
Jupiter1.9806
Saturn6.10849
Uranus15.1753
Neptune26.9147

Observations

392 total observations over interval: 1998 10 16.23049 – 2023 03 28.213692
These data are available for download (format description).

Date (UT) J2000 RA J2000 Dec Magn Location Ref
1998 10 16.23049 00 07 51.19 +01 03 51.1 19.8 V 691 – Steward Observatory, Kitt Peak-Spacewatch MPS 2886
1998 10 16.25214 00 07 50.44 +01 03 41.9 20.3 V 691 – Steward Observatory, Kitt Peak-Spacewatch MPS 2886
1998 10 16.27608 00 07 49.59 +01 03 33.1 19.8 V 691 – Steward Observatory, Kitt Peak-Spacewatch MPS 2886
1998 10 24.20089 00 03 50.99 +00 15 45.7 20.3 V 691 – Steward Observatory, Kitt Peak-Spacewatch MPS 2886
1998 10 24.22158 00 03 50.43 +00 15 39.1 20.3 V 691 – Steward Observatory, Kitt Peak-Spacewatch MPS 2886
1998 10 24.24215 00 03 49.85 +00 15 32.2 20.3 V 691 – Steward Observatory, Kitt Peak-Spacewatch MPS 2886
1998 10 28.14995 00 02 16.41 -00 05 00.4 20.2 V 691 – Steward Observatory, Kitt Peak-Spacewatch MPS 34046
1998 10 28.17051 00 02 15.96 -00 05 06.3 20.5 V 691 – Steward Observatory, Kitt Peak-Spacewatch MPS 34046
1998 10 28.19117 00 02 15.47 -00 05 12.4 20.5 V 691 – Steward Observatory, Kitt Peak-Spacewatch MPS 34046
2006 02 02.30458 09 14 24.28 +06 17 37.3 20.0 V G96 – Mt. Lemmon Survey MPS 302082
2006 02 02.31156 09 14 23.96 +06 17 39.3 20.1 V G96 – Mt. Lemmon Survey MPS 302082
2006 02 02.31861 09 14 23.64 +06 17 41.4 19.9 V G96 – Mt. Lemmon Survey MPS 302082
2006 02 02.32559 09 14 23.31 +06 17 43.1 20.1 V G96 – Mt. Lemmon Survey MPS 302082
2007 03 13.41662 14 08 20.72 -10 34 17.2 21.4 V G96 – Mt. Lemmon Survey MPS 302082
2007 03 13.42579 14 08 20.54 -10 34 14.9 21.3 V G96 – Mt. Lemmon Survey MPS 302082
2007 03 13.43487 14 08 20.36 -10 34 13.2 20.9 V G96 – Mt. Lemmon Survey MPS 302082
2007 03 13.44403 14 08 20.18 -10 34 10.9 20.9 V G96 – Mt. Lemmon Survey MPS 302082
2007 03 13.44718 14 08 20.13 -10 34 10.2 21.4 V 691 – Steward Observatory, Kitt Peak-Spacewatch MPS 302082
2007 03 13.46482 14 08 19.76 -10 34 06.2 21.2 V 691 – Steward Observatory, Kitt Peak-Spacewatch MPS 302082
2007 03 13.48246 14 08 19.44 -10 34 02.2 21.4 V 691 – Steward Observatory, Kitt Peak-Spacewatch MPS 302082
2007 03 26.40703 14 02 52.26 -09 35 19.7 20.7 V 691 – Steward Observatory, Kitt Peak-Spacewatch MPS 302082
2007 03 26.42464 14 02 51.68 -09 35 14.1 20.7 V 691 – Steward Observatory, Kitt Peak-Spacewatch MPS 302082
2007 03 26.42591 14 02 51.61 -09 35 14.2 20.6 V G96 – Mt. Lemmon Survey MPS 302082
2007 03 26.43240 14 02 51.43 -09 35 12.3 21.0 V G96 – Mt. Lemmon Survey MPS 302082
2007 03 26.43874 14 02 51.18 -09 35 10.3 20.7 V G96 – Mt. Lemmon Survey MPS 302082
2007 03 26.44226 14 02 51.08 -09 35 09.1 21.0 V 691 – Steward Observatory, Kitt Peak-Spacewatch MPS 302082
2007 03 26.44523 14 02 51.00 -09 35 08.5 20.9 V G96 – Mt. Lemmon Survey MPS 302082
2007 04 20.29124 13 46 43.96 -07 14 18.6 20.1 V G96 – Mt. Lemmon Survey MPS 302082
2007 04 20.29692 13 46 43.64 -07 14 15.2 19.9 V G96 – Mt. Lemmon Survey MPS 302082
2007 04 20.30244 13 46 43.46 -07 14 14.0 19.9 V G96 – Mt. Lemmon Survey MPS 302082
2007 04 20.30809 13 46 43.32 -07 14 12.5 19.9 V G96 – Mt. Lemmon Survey MPS 302082
2009 08 16.38241 23 58 38.27 +04 08 11.2 20.6 V 691 – Steward Observatory, Kitt Peak-Spacewatch MPS 302311
2009 08 16.40002 23 58 37.93 +04 08 07.6 20.6 V 691 – Steward Observatory, Kitt Peak-Spacewatch MPS 302311
2009 08 16.41763 23 58 37.55 +04 08 04.1 20.4 V 691 – Steward Observatory, Kitt Peak-Spacewatch MPS 302311
2009 08 20.35636 23 57 13.49 +03 53 20.2   691 – Steward Observatory, Kitt Peak-Spacewatch MPS 302311
2009 08 20.37454 23 57 13.02 +03 53 16.1   691 – Steward Observatory, Kitt Peak-Spacewatch MPS 302311
2009 08 20.39290 23 57 12.56 +03 53 13.8   691 – Steward Observatory, Kitt Peak-Spacewatch MPS 302311
2009 08 30.11041 23 52 36.66 +03 06 42.7 19.4 V J75 – OAM Observatory, La Sagra MPS 302311
2009 08 30.12381 23 52 36.22 +03 06 38.3 19.4 V J75 – OAM Observatory, La Sagra MPS 302311
2009 08 30.13723 23 52 35.71 +03 06 33.5 19.8 V J75 – OAM Observatory, La Sagra MPS 302311
2009 09 17.30113 23 41 04.92 +01 10 22.5 19.5 V G96 – Mt. Lemmon Survey MPS 302311
2009 09 17.30819 23 41 04.63 +01 10 19.7 19.6 V G96 – Mt. Lemmon Survey MPS 302311
2009 09 17.31544 23 41 04.34 +01 10 16.7 19.6 V G96 – Mt. Lemmon Survey MPS 302311
2009 09 17.32252 23 41 04.02 +01 10 13.5 19.7 V G96 – Mt. Lemmon Survey MPS 302311
2009 10 10.15054 23 26 52.18 -01 26 57.8 20.6 V G96 – Mt. Lemmon Survey MPS 302311
2009 10 10.15607 23 26 51.97 -01 26 59.6 20.2 V G96 – Mt. Lemmon Survey MPS 302311
2009 10 10.16161 23 26 51.82 -01 27 01.7 20.4 V G96 – Mt. Lemmon Survey MPS 302311
2009 10 10.16714 23 26 51.64 -01 27 04.1 20.1 V G96 – Mt. Lemmon Survey MPS 302311
2009 10 17.16879 23 23 46.93 -02 07 44.9 20.2 V G96 – Mt. Lemmon Survey MPS 302311
2009 10 17.17493 23 23 46.75 -02 07 46.7 19.8 V G96 – Mt. Lemmon Survey MPS 302311
2009 10 17.18108 23 23 46.60 -02 07 48.7 19.8 V G96 – Mt. Lemmon Survey MPS 302311
2009 10 17.18728 23 23 46.50 -02 07 50.4 19.8 V G96 – Mt. Lemmon Survey MPS 302311
2011 12 06.62864 11 23 01.487 -01 05 59.74 22.4 w F51 – Pan-STARRS 1, Haleakala MPS 403821
2011 12 06.63328 11 23 01.674 -01 06 01.05 22.1 w F51 – Pan-STARRS 1, Haleakala MPS 403821
2011 12 06.63794 11 23 01.870 -01 06 02.45 22.0 w F51 – Pan-STARRS 1, Haleakala MPS 403821
2012 02 24.54071 11 26 07.930 -01 01 27.62 21.0 r F51 – Pan-STARRS 1, Haleakala MPS 414126
2012 02 24.55061 11 26 07.543 -01 01 24.10 20.8 r F51 – Pan-STARRS 1, Haleakala MPS 414126
2012 02 24.56084 11 26 07.126 -01 01 20.75 21.1 g F51 – Pan-STARRS 1, Haleakala MPS 414127
2012 02 24.57102 11 26 06.718 -01 01 17.50 21.1 g F51 – Pan-STARRS 1, Haleakala MPS 414127
2012 03 01.38501 11 22 15.24 -00 27 36.9 20.4 V G96 – Mt. Lemmon Survey MPS 414127
2012 03 01.39314 11 22 14.88 -00 27 33.7 20.6 V G96 – Mt. Lemmon Survey MPS 414127
2012 03 01.40133 11 22 14.48 -00 27 30.6 20.3 V G96 – Mt. Lemmon Survey MPS 414127
2012 03 01.40947 11 22 14.23 -00 27 27.6 20.6 V G96 – Mt. Lemmon Survey MPS 414127
2012 03 16.25565 11 11 54.13 +01 07 09.7 20.1 V G96 – Mt. Lemmon Survey MPS 417161
2012 03 16.26362 11 11 53.77 +01 07 12.7 20.3 V G96 – Mt. Lemmon Survey MPS 417161
2012 03 16.27168 11 11 53.44 +01 07 15.8 20.4 V G96 – Mt. Lemmon Survey MPS 417161
2012 03 16.27969 11 11 53.08 +01 07 19.2 20.2 V G96 – Mt. Lemmon Survey MPS 417161
2012 04 12.27054 10 57 24.260 +03 43 49.79 21.2 g F51 – Pan-STARRS 1, Haleakala MPS 421805
2012 04 12.28231 10 57 24.020 +03 43 52.74 21.0 g F51 – Pan-STARRS 1, Haleakala MPS 421805
2012 04 21.23428 10 55 10.45 +04 20 04.0 20.6 V G96 – Mt. Lemmon Survey MPS 422776
2012 04 21.24173 10 55 10.38 +04 20 06.0 21.2 V G96 – Mt. Lemmon Survey MPS 422776
2012 04 21.24928 10 55 10.30 +04 20 07.1 20.6 V G96 – Mt. Lemmon Survey MPS 422776
2012 04 21.25679 10 55 10.20 +04 20 08.4 20.8 V G96 – Mt. Lemmon Survey MPS 422776
2012 04 22.20756 10 55 01.59 +04 23 23.4 21.6 V G96 – Mt. Lemmon Survey MPS 422776
2012 04 22.21455 10 55 01.48 +04 23 25.1 21.3 V G96 – Mt. Lemmon Survey MPS 422776
2012 04 22.22236 10 55 01.41 +04 23 26.8 21.2 V G96 – Mt. Lemmon Survey MPS 422776
2012 04 22.22934 10 55 01.34 +04 23 28.6 20.7 V G96 – Mt. Lemmon Survey MPS 422776
2013 04 07.42290 16 07 17.53 -13 58 50.9 21.4 V 691 – Steward Observatory, Kitt Peak-Spacewatch MPS 463987
2013 04 07.44076 16 07 17.30 -13 58 47.0 21.2 V 691 – Steward Observatory, Kitt Peak-Spacewatch MPS 463987
2013 04 07.46756 16 07 16.85 -13 58 40.8 21.0 V 691 – Steward Observatory, Kitt Peak-Spacewatch MPS 463987
2013 04 15.50843 16 04 39.201 -13 27 56.29 21.0 w F51 – Pan-STARRS 1, Haleakala MPS 464965
2013 04 15.52267 16 04 38.834 -13 27 53.04 20.9 w F51 – Pan-STARRS 1, Haleakala MPS 464965
2013 04 15.53696 16 04 38.464 -13 27 49.64 21.1 w F51 – Pan-STARRS 1, Haleakala MPS 464965
2013 04 15.55120 16 04 38.092 -13 27 46.14 20.8 w F51 – Pan-STARRS 1, Haleakala MPS 464965
2013 05 08.44265 15 51 17.203 -11 51 31.41 20.5 w F51 – Pan-STARRS 1, Haleakala MPS 467437
2013 05 08.45673 15 51 16.582 -11 51 27.90 20.5 w F51 – Pan-STARRS 1, Haleakala MPS 467437
2013 05 08.47083 15 51 15.957 -11 51 24.29 20.5 w F51 – Pan-STARRS 1, Haleakala MPS 467437
2013 05 08.48496 15 51 15.327 -11 51 20.71 20.5 w F51 – Pan-STARRS 1, Haleakala MPS 467437
2013 06 04.39173 15 31 39.625 -10 16 07.35 20.7 w F51 – Pan-STARRS 1, Haleakala MPS 469835
2013 06 04.42102 15 31 38.428 -10 16 02.84 20.6 w F51 – Pan-STARRS 1, Haleakala MPS 469835
